FW8778 Weather Reports


Display with metric or nautical units.
time (UTC)temp
F
wind
direction
speed
MPH
gust
MPH
rain 1hr
in
rain 24hr
in
rain mn
in
humidity
%
barometer
mb
20260504001508 54 359 0.0 0.0 0.00 0.00 0.00 65 1019.2
20260504000017 54 359 0.0 0.0 0.00 0.00 0.00 65 1019.2
20260503234505 54 359 0.0 0.0 0.00 0.00 0.00 65 1019.3
20260503233007 54 359 0.0 0.0 0.00 0.00 0.00 66 1019.4
20260503231501 54 359 0.0 0.0 0.00 0.00 0.00 68 1019.6
20260503230103 54 359 0.0 0.0 0.00 0.00 0.00 68 1019.7
20260503224556 54 359 0.0 0.0 0.00 0.00 0.00 68 1019.7
20260503223054 54 359 0.0 0.0 0.00 0.00 0.00 69 1019.8
20260503221555 53 359 0.0 0.0 0.00 0.00 0.00 70 1019.9
20260503220049 53 359 0.0 0.0 0.00 0.00 0.00 72 1019.9
20260503214548 53 359 0.0 0.0 0.00 0.00 0.00 75 1020.0
20260503213048 53 359 0.0 0.0 0.00 0.00 0.00 75 1019.9
20260503211552 53 359 0.0 0.0 0.00 0.00 0.00 73 1019.8
20260503210047 54 359 0.0 0.0 0.00 0.00 0.00 72 1019.9
20260503204546 53 359 0.0 0.0 0.00 0.00 0.00 73 1020.0
20260503203104 53 359 0.0 0.0 0.00 0.00 0.00 74 1020.2
20260503201546 53 359 0.0 0.0 0.00 0.00 0.00 76 1020.1
20260503200045 54 359 0.0 0.0 0.00 0.00 0.00 76 1020.1
20260503194552 54 359 0.0 0.0 0.00 0.00 0.00 78 1020.0
20260503193049 54 359 0.0 0.0 0.00 0.00 0.00 79 1019.9
20260503191544 54 359 0.0 0.0 0.00 0.00 0.00 82 1019.8
20260503190047 55 359 0.0 0.0 0.00 0.00 0.00 81 1019.6
20260503184543 55 359 0.0 0.0 0.00 0.00 0.00 80 1019.4
20260503183045 56 359 0.0 0.0 0.00 0.00 0.00 79 1019.2
20260503181541 56 359 0.0 0.0 0.00 0.00 0.00 77 1019.1
20260503180040 57 359 0.0 0.0 0.00 0.00 0.00 76 1018.8
20260503174540 57 359 0.0 0.0 0.00 0.00 0.00 74 1018.8
20260503173051 58 359 0.0 0.0 0.00 0.00 0.00 73 1018.8
20260503171540 59 359 0.0 0.0 0.00 0.00 0.00 70 1018.7
20260503081518 61 359 0.0 0.0 0.00 0.00 0.00 46 1018.9
20260503071605 59 359 0.0 0.0 0.00 0.00 0.00 42 1019.5
20260503070105 59 359 0.0 0.0 0.00 0.00 0.00 41 1019.7
20260503060103 55 225 0.0 0.0 0.00 0.00 0.00 44 1019.9
20260503054546 54 359 0.0 0.0 0.00 0.00 0.00 42 1020.0
20260503053043 54 359 0.0 0.0 0.00 0.00 0.00 42 1019.9
20260503051537 53 359 0.0 0.0 0.00 0.00 0.00 44 1019.8
20260503050037 52 359 0.0 0.0 0.00 0.00 0.00 44 1019.8
20260503044535 51 359 0.0 0.0 0.00 0.00 0.00 45 1019.7
20260503043033 49 359 0.0 0.0 0.00 0.00 0.00 49 1019.9
20260503041534 49 359 0.0 0.0 0.00 0.00 0.00 48 1019.8
20260503040034 49 359 0.0 0.0 0.00 0.00 0.00 49 1019.6
20260503034532 49 359 0.0 0.0 0.00 0.00 0.00 49 1019.6
20260503033050 50 359 0.0 0.0 0.00 0.00 0.00 47 1019.6
20260503031535 49 359 0.0 0.0 0.00 0.00 0.00 48 1019.6
20260503030028 49 359 0.0 0.0 0.00 0.00 0.00 48 1019.8
20260503024528 49 359 0.0 0.0 0.00 0.00 0.00 50 1019.9
20260503023041 49 359 0.0 0.0 0.00 0.00 0.00 49 1020.0
20260503021525 49 359 0.0 0.0 0.00 0.00 0.00 48 1020.1
20260503020023 49 359 0.0 0.0 0.00 0.00 0.00 50 1020.3
20260503014523 50 359 0.0 0.0 0.00 0.00 0.00 48 1020.4
20260503013022 48 359 0.0 0.0 0.00 0.00 0.00 51 1020.4
20260503011520 49 359 0.0 0.0 0.00 0.00 0.00 50 1020.6
20260503010029 49 359 0.0 0.0 0.00 0.00 0.00 48 1020.7
20260503004518 51 359 0.0 0.0 0.00 0.00 0.00 45 1020.8
20260503003017 51 359 0.0 0.0 0.00 0.00 0.00 45 1021.0